Theta_e
308 307 306 304 304 304 303 304 303 303 304 305 304 304 303 302 302 302 302 303 303 303 303 303 304 305 305 306 307 309 310 310 312 314 318 321 323 329 328 330 330 328 327
305 304 303 303 303 303 303 303 304 304 305 303 302 302 302 302 302 302 302 303 303 304 304 304 305 305 306 306 307 308 310 312 313 316 319 321 324 322 323 325 325 324 324
303 303 303 303 302 302 302 303 303 303 302 302 302 301 302 302 302 302 303 304 306 306 305 305 305 306 307 307 308 310 312 313 314 315 317 320 323 320 319 319 318 317 315
302 302 302 302 302 303 303 302 302 302 302 302 301 302 301 302 303 303 305 306 308 308 307 307 307 307 307 308 309 311 312 314 316 318 320 323 323 318 317 315 313 313 313
302 302 302 303 304 304 303 302 302 302 302 302 302 302 302 303 303 306 306 306 306 307 309 310 310 309 309 309 310 311 313 316 316 318 323 323 319 317 317 315 313 312 312
303 303 303 304 305 305 306 303 302 302 303 302 303 303 302 303 305 306 306 306 306 306 307 308 309 310 311 313 313 313 313 314 314 316 322 324 322 319 315 313 312 311 311
304 305 305 305 305 305 305 304 303 302 302 303 302 303 303 303 306 306 306 306 306 306 306 306 306 307 309 311 312 311 312 313 314 317 320 316 315 314 314 312 311 311 310
305 305 304 305 305 305 304 305 303 304 303 302 303 304 303 303 306 306 306 306 306 306 307 307 307 307 307 307 307 308 308 310 311 312 312 312 312 312 312 312 311 311 311
305 305 304 304 304 303 304 301 302 304 305 305 304 304 302 302 303 306 307 306 306 306 307 307 308 309 309 307 307 308 308 308 309 309 309 310 310 311 311 311 311 312 312
305 304 305 304 304 302 304 302 301 301 303 304 305 304 302 302 302 304 306 307 307 306 307 307 306 307 308 310 311 310 310 309 308 308 309 309 309 310 311 311 311 312 312
303 303 305 303 303 303 302 300 299 300 302 301 304 305 302 301 301 302 303 306 306 308 307 306 306 306 307 307 307 308 309 311 311 310 310 310 309 309 310 310 311 311 310
303 304 304 304 304 304 299 299 299 299 300 301 301 301 302 301 300 301 303 304 306 306 306 306 306 306 306 305 306 306 308 308 309 308 308 308 308 309 308 308 308 308 308
304 305 302 303 303 303 300 299 299 299 299 299 301 300 300 299 300 300 301 303 305 305 306 305 305 305 305 306 306 306 306 307 308 308 308 308 308 307 307 307 307 308 307
305 304 301 303 301 303 301 299 298 298 299 299 300 300 300 299 299 300 300 302 303 304 303 303 304 304 305 305 305 305 304 304 306 306 307 306 306 307 305 305 306 307 306
303 303 301 302 301 300 300 297 299 297 298 298 299 299 298 298 298 300 300 301 301 302 303 303 303 302 303 302 303 303 303 302 303 304 304 304 304 303 304 304 304 304 305
304 301 303 302 301 300 300 300 297 297 298 297 297 298 298 298 299 300 300 300 301 301 300 300 300 299 300 300 300 301 301 301 301 301 302 302 302 303 303 303 302 302 302
302 301 302 301 300 300 299 299 301 299 298 298 298 298 299 299 298 299 300 300 299 299 298 298 298 298 298 298 298 298 299 299 299 299 300 300 300 301 302 302 302 301 302
300 300 301 302 300 299 298 298 300 301 302 301 299 299 299 299 299 299 299 299 299 297 297 296 296 296 296 296 295 296 296 296 297 298 298 298 299 299 300 301 300 300 301
302 300 300 301 299 298 298 298 299 300 302 301 300 300 300 299 300 299 299 298 297 296 295 295 295 295 294 294 294 294 294 295 295 295 295 296 297 298 299 300 301 300 300
302 300 299 300 298 298 298 298 298 299 299 301 300 300 300 299 300 299 298 296 296 295 295 295 294 295 294 293 293 293 293 294 294 293 294 295 295 296 297 299 300 299 299
301 300 299 300 299 298 298 297 298 299 299 299 300 300 299 299 299 298 298 297 296 296 296 295 295 295 293 292 292 292 292 292 292 292 293 294 295 295 296 298 299 299 300
301 300 300 299 299 298 298 298 298 300 300 299 300 300 299 299 299 298 297 297 297 296 296 295 295 293 292 292 291 291 291 291 291 291 292 293 294 295 296 298 298 299 300
301 300 300 299 298 298 298 299 300 300 300 299 301 300 299 299 298 297 297 297 296 296 296 295 293 293 291 290 290 290 290 290 291 291 291 293 294 294 296 297 298 299 300
301 300 299 298 298 297 298 300 300 299 299 301 300 299 299 298 298 297 297 297 296 296 295 293 292 291 290 290 290 290 290 290 291 291 292 293 294 295 296 297 298 300 301
300 299 298 298 297 297 299 300 299 299 300 300 300 299 298 298 297 296 296 297 296 295 293 292 291 290 290 290 290 291 291 292 292 292 293 294 295 296 297 299 300 301 302
299 298 297 295 295 298 300 299 299 300 300 300 299 298 297 296 296 296 296 295 294 293 291 291 290 290 290 291 292 292 292 293 293 294 294 295 296 297 299 300 300 301 303
Wind_Speed
19 21 21 21 21 22 22 23 24 27 29 27 28 28 30 30 29 28 29 30 29 28 26 27 27 26 25 22 20 19 19 18 10 32 22 21 24 7 9 8 11 13 13
20 20 20 20 21 22 22 24 27 27 26 28 28 29 29 30 30 28 29 30 29 28 23 22 23 21 23 23 21 22 21 19 17 11 19 19 13 6 9 11 11 12 12
18 18 18 19 20 21 25 26 25 27 27 28 29 30 30 30 30 30 28 29 27 21 19 20 20 18 19 19 19 20 18 18 17 17 20 19 4 1 10 12 14 15 14
16 17 17 17 20 21 21 23 26 28 28 30 30 29 30 30 28 28 26 23 20 17 14 16 15 16 17 16 16 18 19 18 17 17 20 17 4 3 7 14 13 13 14
14 15 15 16 19 18 22 27 28 29 31 32 31 32 33 30 27 28 24 21 20 17 13 10 11 11 13 15 17 18 16 12 12 16 11 9 7 6 7 9 11 16 12
13 14 15 17 17 19 21 22 26 29 32 35 34 33 33 30 27 26 26 24 24 22 20 14 9 8 6 13 17 18 18 14 14 12 6 4 5 5 7 14 17 8 2
16 15 15 15 18 18 16 21 22 22 27 33 34 35 34 34 30 26 28 28 27 27 24 24 22 19 15 14 12 8 5 4 7 11 5 3 4 5 12 15 14 10 6
14 14 15 16 19 19 22 20 22 20 17 26 27 27 32 33 32 28 27 27 27 28 29 27 27 28 26 26 27 26 25 22 16 13 11 9 8 8 7 9 12 8 8
16 17 17 19 20 19 19 22 26 23 19 18 18 19 29 30 34 27 28 27 26 26 26 27 25 22 22 25 25 23 23 23 23 24 23 19 15 12 10 11 9 8 3
19 19 17 16 17 19 19 20 21 24 20 19 12 15 22 28 30 26 22 23 25 26 26 28 29 26 22 19 17 15 14 14 19 21 21 20 20 18 12 7 1 2 1
16 18 18 14 13 15 17 21 21 24 20 23 18 8 25 26 28 29 30 22 21 18 18 21 22 24 24 25 28 20 8 4 5 11 12 14 14 14 14 13 17 9 11
16 17 18 11 12 11 17 19 21 23 21 23 20 22 21 23 28 29 28 28 16 18 15 17 20 21 22 25 25 24 22 20 17 15 13 12 13 13 12 11 9 11 10
18 15 20 11 14 11 14 14 18 20 19 19 19 19 19 21 25 29 28 28 25 12 14 21 20 21 21 22 22 25 27 24 20 18 16 16 13 11 10 9 7 8 9
16 17 20 12 14 8 9 11 12 15 17 18 19 17 19 21 25 25 24 24 24 21 21 22 21 19 19 20 21 21 22 22 19 18 16 15 15 14 13 13 12 1 8
15 18 16 14 12 12 7 7 6 12 16 14 17 18 17 18 24 22 25 24 23 20 19 19 21 22 21 22 21 21 21 21 21 19 17 16 15 15 13 13 12 12 9
14 17 16 13 16 13 13 2 2 5 10 9 14 20 16 20 17 18 19 22 21 21 21 20 20 20 20 20 20 19 19 20 19 18 16 16 16 14 13 12 10 10 8
17 17 20 12 15 14 14 14 9 5 4 6 8 16 22 22 24 20 18 17 23 21 19 18 18 19 19 19 19 19 19 19 18 17 16 15 14 14 13 10 9 8 7
13 15 19 14 13 14 15 16 15 14 12 18 5 10 18 20 20 23 22 20 20 22 19 18 18 19 19 19 19 19 19 19 18 16 16 15 14 13 13 8 8 7 8
6 13 17 14 14 11 13 14 16 17 13 14 15 15 18 17 17 19 20 18 17 17 18 18 17 18 18 19 19 18 18 17 16 15 15 14 14 14 13 13 6 9 7
11 10 15 13 13 15 14 12 12 13 16 16 14 14 16 16 17 19 19 18 17 16 16 17 18 18 18 19 19 18 18 16 17 16 15 15 13 12 11 12 9 8 7
11 13 13 13 13 13 12 15 16 13 14 13 13 16 18 16 17 17 17 16 15 15 15 19 17 17 20 19 19 18 17 16 16 16 15 15 12 11 9 8 6 5 6
10 10 10 15 12 13 14 13 15 16 15 15 12 19 20 17 17 18 18 19 19 18 17 15 15 22 18 19 18 17 15 15 16 14 13 13 10 9 7 11 5 6 5
11 12 14 12 15 14 15 15 15 16 16 15 18 19 18 18 18 19 19 20 23 17 14 14 22 17 19 19 16 15 13 15 15 10 11 9 8 6 5 8 5 6 6
11 12 13 14 14 15 15 16 17 17 16 17 20 17 18 18 19 21 21 21 23 18 13 20 19 19 19 18 15 16 13 13 11 8 5 6 5 4 6 5 5 6 7
12 12 13 14 15 14 16 17 17 16 16 19 18 18 19 20 21 23 24 22 19 18 22 18 21 20 20 18 15 14 12 9 8 5 5 3 4 5 5 7 7 8 10
12 13 13 15 15 15 16 17 16 18 19 17 18 18 19 20 21 22 24 20 25 20 22 21 23 22 21 18 15 13 11 10 9 8 8 7 6 6 8 7 8 9 9
Wind_Direction
357 354 352 349 343 341 337 334 332 330 321 320 322 322 319 316 313 306 298 292 284 276 266 265 262 261 259 262 263 262 260 255 250 282 292 310 322 339 38 70 114 126 132
353 352 350 348 349 344 340 337 336 331 331 332 331 331 324 319 316 310 305 300 291 281 269 265 262 260 256 261 260 264 263 262 269 283 297 310 317 16 61 87 99 113 116
353 352 356 355 348 342 344 341 344 345 344 341 337 334 327 327 325 321 316 315 314 317 277 272 269 257 253 255 258 263 266 266 268 271 279 276 256 2 90 99 105 116 113
357 1 359 349 342 343 348 359 3 5 356 353 348 340 341 341 336 341 341 342 341 332 309 298 279 262 258 260 267 273 280 267 273 275 276 268 191 144 146 131 113 120 122
2 360 354 338 338 344 3 12 12 13 8 1 355 355 356 352 355 5 2 6 5 3 5 337 297 277 258 257 259 268 282 289 310 300 262 230 169 161 188 171 137 138 132
355 354 338 336 336 336 341 1 12 15 14 10 5 1 359 0 15 21 21 16 23 22 21 23 8 357 305 263 253 258 270 284 285 289 312 239 151 147 168 151 141 132 125
332 348 351 349 345 351 358 4 6 10 17 10 11 13 9 12 23 31 35 30 28 34 33 37 38 43 51 69 99 96 43 360 301 277 264 50 123 175 164 151 147 144 148
352 346 358 353 350 3 359 4 352 345 353 12 10 16 16 14 22 31 40 39 37 40 45 49 49 53 61 68 75 74 67 61 60 71 84 86 101 130 150 160 147 123 112
348 358 3 0 0 360 352 2 349 338 337 344 7 23 23 25 17 26 38 39 41 42 47 43 45 45 50 63 70 70 67 71 70 72 74 75 78 86 106 123 111 111 72
353 349 346 3 1 344 351 359 356 346 346 341 355 39 30 20 22 16 18 28 32 36 41 41 41 42 41 38 44 55 62 76 78 77 74 70 65 62 55 46 284 226 256
352 347 339 0 353 345 8 15 2 352 355 350 7 55 33 20 11 17 14 5 5 15 31 31 31 38 41 39 41 37 26 357 52 60 60 64 57 53 54 56 62 73 82
342 328 336 353 345 1 26 22 12 7 8 359 20 11 18 16 11 10 15 12 4 23 46 36 32 28 29 32 36 36 38 49 61 59 57 49 51 51 44 47 65 74 76
341 350 348 14 3 28 27 27 18 17 18 10 6 16 8 12 7 7 10 11 18 16 30 41 40 38 39 37 34 32 33 29 32 40 36 34 42 39 54 22 48 92 76
353 347 355 14 7 21 20 25 35 23 26 23 11 17 11 12 5 17 14 13 22 37 37 35 33 30 31 30 30 32 30 27 25 25 24 24 28 37 39 29 33 43 105
9 345 359 359 10 17 8 38 49 51 50 39 32 20 20 11 14 38 25 29 29 31 30 28 25 22 21 18 19 21 23 20 18 16 18 18 25 25 26 29 29 34 80
2 349 340 6 359 28 13 285 16 55 47 54 47 38 30 27 27 28 24 25 33 32 33 28 22 18 16 12 11 11 15 17 13 10 14 16 10 15 21 32 32 39 59
5 352 339 11 10 13 9 6 26 307 358 51 65 44 41 23 29 34 28 30 31 34 34 24 19 14 9 8 7 5 5 9 7 9 11 12 10 5 11 36 36 42 39
15 2 341 352 16 15 14 10 13 13 46 44 53 41 32 22 22 24 24 26 24 26 24 20 13 9 7 3 2 359 358 3 2 9 8 6 6 358 356 27 35 38 37
15 13 354 4 9 20 23 28 15 7 18 64 35 15 17 16 17 26 27 29 23 19 14 11 7 4 0 357 354 355 354 357 1 5 4 2 1 357 357 5 35 47 49
1 28 9 4 23 6 20 22 29 24 15 19 48 29 25 15 17 20 23 21 17 13 8 4 358 355 350 351 350 350 351 355 358 359 357 358 358 3 359 356 23 44 47
19 28 9 348 21 20 24 24 9 21 26 22 69 54 40 26 19 16 15 11 5 357 351 347 345 351 348 349 349 350 350 351 354 352 354 356 357 359 356 4 34 51 36
28 16 15 6 21 18 17 29 23 11 23 22 30 44 30 22 16 11 7 3 352 349 349 349 353 348 351 350 344 345 347 344 348 351 353 353 357 1 1 18 35 46 53
25 24 12 32 5 32 17 19 27 23 20 22 38 33 21 17 11 9 360 355 347 350 352 353 357 352 350 351 345 348 344 339 345 348 340 351 353 353 24 20 47 63 59
31 28 24 18 20 20 22 23 19 27 24 33 38 27 18 10 12 3 354 346 348 351 356 360 359 355 349 352 347 347 345 340 346 352 358 359 356 29 26 52 72 77 51
29 29 27 22 20 20 19 27 24 23 31 35 29 21 13 14 7 357 348 347 3 3 1 3 0 358 356 358 357 357 1 4 11 35 43 53 74 54 64 78 71 78 68
42 33 37 25 15 19 32 29 27 23 37 26 26 21 17 9 359 351 353 14 5 9 3 6 8 8 6 12 16 24 27 32 49 73 77 77 80 77 84 73 91 77 59